Terminal Aerodrome Forecast
Issued by NWS

Home | Current Version | Previous Version | Text Only | Print | Product List | Glossary On
Versions: 1 2 3 4 5 6 7 8 9 10 11 12 13 14 15 16 17 18 19
000
FTUS43 KABR 232200 AAB
TAFPIR
TAF AMD
KPIR 232210Z 2322/2418 12014KT P6SM SCT250
     FM240000 13008KT P6SM SCT025
     FM240900 13005KT 4SM BR BKN010
     FM241500 21004KT P6SM SKC=

USA.gov is the U.S. government's official web portal to all federal, state and local government web resources and services.